User: anonymous   Login
Location: Baia Mare
(47.6567°N, 23.5850°E)
Time: 01:12:06
(UTC+02:00)
Language:

ISS - Orbit

View from above orbital plane
View from above orbital plane
View from above satellite
View from above satellite

Ground track
Ground track

The orbit data is extracted from the following two-line orbital elements,

1 25544U 98067A   21340.77666786  .00003479  00000-0  71409-4 0  9991
2 25544  51.6431 209.3367 0003799 275.0493 202.9212 15.48945633315342
Epoch (UTC): 06 December 2021 18:38:24
Eccentricity: 0.0003799
inclination: 51.6431°
perigee height: 417 km
apogee height: 422 km
right ascension of ascending node: 209.3367°
argument of perigee: 275.0493°
revolutions per day: 15.48945633
mean anomaly at epoch: 202.9212°
orbit number at epoch: 31534

The dashed part of the orbit path shows where the satellite is in the earth's shadow,  

DLR